Showing default

OPS 6582 (TRANSIT 5E-5), 959

Orbit data source: Space-Track

OPS 6582 (TRANSIT 5E-5), 959 is a payload satellite owned by USN BuWeps (US) in LEO that was launched on Sun, 13 Dec 1964 UTC via a THOR ABLESTAR launch vehicle from the Air Force Western Test Range (AFWTR). Payload-class satellites include a variety of spacecraft equipped with specific instruments for various scientific and technological missions. These include communications satellites like Starlink; space stations such as the ISS; scientific satellites like the Hubble; Earth observation satellites from companies like Planet Labs, Umbra, and HawkEye 360; GPS; miniature CubeSats for education and research; and military/defense satellites.

Loading next visibility...
Identifier
959, 1964-083C
Orbit
LEO
Country
Flag of USUS
Related business
Manufacturer
APL
Mission
Spacecraft
Bus & Motor
TRANSIT 5, Unknown motor
Mass
77 kg wet, 77 kg dry
Launch date (UTC)
1964-12-13 (62 years ago)
Launch vehicle
THOR ABLESTAR
Launch site
Air Force Western Test Range (AFWTR)
Object type
Payload
Rocket body
Debris
Shape & HBR
OCT CYL + 4 PAN + ANT, 1.1 m
Radar Cross Section
Medium (>0.1 m² and <1 m²)

Expand to show TLE details & history
Last TLE update: 7 hours ago

TLE from 7 hours ago
0 OPS 6582 (TRANSIT 5E-5)
1 00959U 64083C   26257.21663451  .00000153  00000-0  18275-3 0  9999
2 00959  90.0154 187.4429 0043839  42.1063 122.8600 13.62518966 62332
Epoch: 2026-09-14T05:11Z
TLE epoch observation values (Epoch: 2026-09-14T05:11:57.221Z)
Latitude
14.58419°
Longitude
-63.74165°
Altitude
1,046.527 km
Speed
7.321 km/s
True Right ascension
00h 29m 47s
True Declination
14° 30' 14"
Sunlit
Object was in full shadow at epoch
Visualization orbit readout
Latitude
Unknown
Longitude
Unknown
Altitude
Unknown
Speed
Unknown
Apparent Right ascension
Unknown
Apparent Declination
Unknown
Sunlit
N/A
Visualization observer readout
Local Sidereal Time
04:36:53
Azimuth
Unknown
Elevation
Unknown
Doppler factor
Unknown
Orbital elements
Apogee altitude
1,056.032 km
Perigee altitude
991.135 km
Semi-major axis
7,401.72 km
Eccentricity
0.00438
Inclination
90.0154°
RAAN
187.4429°
Arg. of periapsis
42.1063°
True anomaly
123.28073°
Mean anomaly
122.86°
Eccentric anomaly
123.07049°
Mean motion
3.40835 °/min
Orbital period
105.62 mins
BSTAR
0.00018275
Loading maneuver chart data...
Computing Atmospheric mass density...

Documentation

Showing up to 5 results
|